Probability
0 0 0 0 0 0 0 0 0 0 0 0 0 0 0 0 0 0 0 0 0 0 0 0 0 0 0 0 0 0 0 0 0 0 0 0 0 0 0 0 0 0 0 0
0 0 0 0 0 0 0 0 0 0 0 0 0 0 0 0 0 0 0 0 0 0 0 0 0 0 0 0 0 0 0 0 0 0 0 0 0 0 0 0 0 0 0 0
0 0 0 0 0 0 0 0 0 0 0 0 0 0 0 0 0 0 0 0 0 0 0 0 0 0 0 0 0 0 0 0 0 0 0 0 0 0 0 0 0 0 0 0
0 0 0 0 0 0 0 0 0 0 0 0 0 0 0 0 0 0 0 0 0 0 0 0 0 0 0 0 0 0 0 0 0 0 0 0 0 0 0 0 0 0 0 0
0 0 0 0 0 0 0 0 0 0 0 0 0 0 0 0 0 0 0 0 0 0 0 0 0 0 0 0 0 0 0 0 0 0 0 0 0 0 0 0 0 0 0 0
0 0 0 0 0 0 0 0 0 0 0 0 0 0 0 0 0 0 0 0 0 0 0 0 0 0 0 0 0 0 0 0 0 0 0 0 0 0 0 0 0 0 0 0
0 0 0 0 0 0 0 0 0 0 0 0 0 0 0 0 0 0 0 0 0 0 0 0 0 0 0 0 0 0 0 0 0 0 0 0 0 0 0 0 0 0 0 0
0 0 0 0 0 0 0 0 0 0 0 0 0 0 0 0 0 0 0 0 0 0 0 0 0 0 0 0 0 0 0 0 0 0 0 0 0 0 0 0 0 0 0 0
0 0 0 0 0 0 0 0 0 0 0 0 0 0 0 0 0 0 0 0 0 0 0 0 0 0 0 0 0 0 0 0 0 0 0 0 0 0 0 0 0 0 0 0
0 0 0 0 0 0 0 0 0 0 0 0 0 0 0 0 0 0 0 0 0 0 0 0 0 0 0 0 0 0 0 0 0 0 0 0 0 0 0 0 0 0 0 0
0 0 0 0 0 0 0 0 0 0 0 0 0 0 0 0 0 0 0 0 0 0 0 0 0 0 0 0 0 0 0 0 0 0 0 0 0 0 0 0 0 0 0 0
0 0 0 0 0 0 0 0 0 0 0 0 0 0 0 0 0 0 0 0 0 0 0 0 0 0 0 0 0 0 0 0 0 0 0 0 0 0 0 0 0 0 0 0
0 0 0 0 0 0 0 0 0 0 0 0 0 0 0 0 0 0 0 0 0 0 0 0 0 0 0 0 0 0 0 0 0 0 0 0 0 0 0 0 0 0 0 0
0 0 0 0 0 0 0 0 0 0 0 0 0 0 0 0 0 0 0 0 0 0 0 0 0 0 0 0 0 0 0 0 0 0 0 0 0 0 0 0 0 0 0 0
0 0 0 0 0 0 0 0 0 0 0 0 0 0 0 0 0 0 0 0 0 0 0 0 0 0 0 0 0 0 0 0 0 0 0 0 0 0 0 0 0 0 0 0
0 0 0 0 0 0 0 0 0 0 0 0 0 0 0 0 0 0 0 0 0 0 0 0 0 0 0 0 0 0 0 0 0 0 0 0 0 0 0 0 0 0 0 0
0 0 0 0 0 0 0 0 0 0 0 0 0 0 0 0 0 0 0 0 0 0 0 0 0 0 0 0 0 0 0 0 0 0 0 0 0 0 0 0 0 0 0 0
0 0 0 0 0 0 0 0 0 0 0 0 0 0 0 0 0 0 0 0 0 0 0 0 0 0 0 0 0 0 0 0 0 0 0 0 0 0 0 0 0 0 0 0
0 0 0 0 0 0 0 0 0 0 0 0 0 0 0 0 0 0 0 0 0 0 0 0 0 0 0 0 0 0 0 0 0 0 0 0 0 0 0 0 0 0 0 0
0 0 0 0 0 0 0 0 0 0 0 0 0 0 0 0 0 0 0 0 0 0 0 0 0 0 0 0 0 0 0 0 0 0 0 0 0 0 0 0 0 0 0 0
0 0 0 0 0 0 0 0 0 0 0 0 0 0 0 0 0 0 0 0 0 0 0 0 0 0 0 0 0 0 0 0 0 0 0 0 0 0 0 0 0 0 0 0
0 0 0 0 0 0 0 0 0 0 0 0 0 0 0 0 0 0 0 0 0 0 0 0 0 0 0 0 0 0 0 0 0 0 0 0 0 0 0 0 0 0 0 0
0 0 0 0 0 0 0 0 0 0 0 0 0 0 0 0 0 0 0 0 0 0 0 0 0 0 0 0 0 0 0 0 0 0 0 0 0 0 0 0 0 0 0 0
0 0 0 0 0 0 0 0 0 0 0 0 0 0 0 0 0 0 0 0 0 0 0 0 0 0 0 0 0 0 0 0 0 0 0 0 0 0 0 0 0 0 0 0
0 0 0 0 0 0 0 0 0 0 0 0 0 0 0 0 0 0 0 0 0 0 0 0 0 0 0 0 0 0 0 0 0 0 0 0 0 0 0 0 0 0 0 0
0 0 0 0 0 0 0 0 0 0 0 0 0 0 0 0 0 0 0 0 0 0 0 0 0 0 0 0 0 0 0 0 0 0 0 0 0 0 0 0 0 0 0 0
0 0 0 0 0 0 0 0 0 0 0 0 0 0 0 0 0 0 0 0 0 0 0 0 0 0 0 0 0 0 0 0 0 0 0 0 0 0 0 0 0 0 0 0
Height
5568 5567 5565 5565 5565 5563 5562 5561 5559 5559 5557 5556 5554 5553 5552 5551 5550 5550 5549 5548 5547 5546 5547 5547 5548 5549 5550 5551 5553 5555 5557 5559 5562 5565 5568 5571 5574 5577 5580 5583 5586 5590 5593 5596
5563 5561 5559 5559 5559 5557 5556 5555 5553 5552 5551 5549 5547 5546 5545 5544 5544 5543 5542 5542 5541 5541 5540 5541 5541 5542 5543 5544 5545 5546 5548 5550 5552 5555 5557 5560 5563 5565 5568 5572 5575 5578 5581 5584
5556 5555 5553 5554 5554 5552 5551 5549 5548 5546 5546 5542 5541 5540 5539 5538 5537 5536 5536 5535 5535 5534 5534 5534 5534 5534 5535 5536 5537 5537 5539 5540 5542 5544 5547 5549 5551 5554 5557 5560 5563 5566 5569 5572
5550 5549 5548 5551 5547 5546 5544 5543 5541 5540 5538 5536 5534 5533 5533 5531 5531 5530 5529 5529 5528 5527 5527 5526 5526 5526 5527 5528 5529 5529 5530 5531 5533 5534 5536 5538 5541 5543 5546 5548 5551 5554 5557 5560
5544 5542 5542 5543 5542 5539 5538 5537 5536 5534 5532 5530 5528 5527 5527 5526 5525 5524 5523 5522 5521 5520 5520 5519 5519 5519 5520 5520 5521 5521 5521 5522 5523 5524 5526 5528 5530 5532 5534 5537 5540 5542 5545 5547
5538 5536 5536 5538 5536 5533 5533 5532 5530 5528 5526 5524 5522 5522 5521 5519 5518 5518 5517 5516 5515 5514 5513 5513 5512 5512 5512 5513 5513 5513 5513 5514 5514 5515 5516 5518 5520 5522 5524 5526 5529 5531 5533 5535
5532 5530 5530 5531 5529 5528 5528 5527 5524 5522 5521 5519 5517 5516 5515 5513 5512 5511 5510 5510 5509 5508 5507 5506 5505 5505 5505 5505 5505 5504 5505 5505 5506 5506 5507 5508 5509 5511 5513 5516 5519 5521 5523 5524
5527 5525 5527 5525 5523 5522 5521 5519 5518 5516 5515 5513 5512 5510 5509 5508 5506 5505 5504 5503 5502 5501 5500 5499 5498 5498 5498 5497 5497 5497 5497 5497 5497 5498 5498 5499 5500 5502 5503 5506 5508 5510 5512 5513
5522 5523 5520 5518 5517 5516 5515 5514 5512 5511 5510 5508 5506 5504 5503 5502 5501 5499 5498 5497 5496 5495 5494 5493 5492 5491 5490 5490 5490 5489 5489 5489 5489 5489 5490 5490 5491 5493 5494 5496 5498 5500 5502 5504
5516 5516 5514 5513 5511 5510 5509 5508 5506 5505 5503 5502 5500 5499 5497 5496 5495 5493 5492 5491 5490 5489 5488 5487 5485 5484 5483 5483 5483 5482 5482 5482 5482 5482 5482 5482 5483 5484 5485 5487 5489 5491 5493 5495
5511 5510 5509 5508 5506 5505 5503 5502 5501 5499 5497 5496 5494 5493 5491 5490 5488 5487 5486 5485 5484 5483 5481 5480 5479 5477 5476 5476 5476 5476 5475 5475 5475 5475 5475 5475 5476 5476 5477 5479 5480 5482 5484 5486
5505 5504 5503 5502 5500 5499 5498 5496 5495 5494 5492 5490 5488 5487 5485 5484 5483 5481 5480 5479 5477 5476 5475 5473 5472 5470 5469 5469 5468 5468 5468 5468 5468 5468 5468 5468 5468 5469 5469 5471 5472 5473 5475 5477
5499 5498 5497 5496 5494 5493 5492 5490 5489 5487 5486 5484 5482 5481 5479 5478 5476 5475 5473 5472 5471 5469 5468 5466 5465 5464 5463 5462 5461 5461 5461 5461 5461 5460 5461 5461 5461 5462 5463 5463 5464 5466 5467 5469
5493 5492 5491 5490 5488 5487 5485 5484 5483 5481 5480 5478 5477 5475 5473 5472 5470 5469 5467 5466 5464 5462 5461 5460 5459 5458 5457 5456 5455 5455 5454 5454 5454 5454 5454 5454 5455 5456 5456 5457 5458 5459 5460 5462
5487 5486 5485 5484 5482 5480 5479 5478 5477 5475 5474 5472 5470 5469 5467 5466 5464 5462 5461 5459 5458 5456 5455 5454 5453 5452 5451 5450 5450 5449 5448 5448 5447 5447 5447 5448 5448 5449 5450 5450 5451 5452 5453 5454
5481 5479 5478 5477 5476 5474 5473 5472 5471 5469 5467 5466 5464 5463 5461 5459 5457 5456 5454 5453 5452 5451 5449 5448 5447 5446 5445 5445 5444 5443 5442 5442 5442 5441 5442 5442 5442 5443 5443 5443 5444 5445 5447 5448
5474 5473 5472 5471 5470 5468 5467 5466 5464 5463 5461 5459 5457 5456 5454 5453 5451 5450 5448 5447 5446 5445 5444 5443 5442 5441 5440 5439 5438 5437 5437 5436 5436 5436 5436 5436 5436 5437 5437 5437 5438 5439 5440 5441
5468 5467 5466 5465 5463 5462 5461 5459 5458 5456 5455 5453 5451 5449 5448 5446 5445 5444 5442 5441 5440 5439 5438 5438 5437 5435 5434 5433 5432 5431 5431 5430 5430 5430 5430 5430 5430 5431 5431 5432 5433 5434 5435 5436
5462 5461 5459 5458 5457 5455 5454 5453 5451 5450 5448 5447 5445 5443 5442 5440 5439 5438 5437 5436 5435 5434 5433 5432 5431 5430 5429 5427 5426 5425 5425 5424 5424 5424 5424 5424 5424 5425 5425 5426 5427 5428 5429 5430
5456 5454 5453 5452 5450 5449 5448 5447 5445 5444 5442 5441 5439 5438 5436 5434 5433 5432 5431 5430 5429 5429 5428 5426 5425 5424 5423 5422 5421 5420 5419 5419 5419 5419 5419 5419 5419 5419 5419 5420 5421 5422 5423 5424
5450 5448 5447 5446 5444 5443 5442 5441 5439 5438 5436 5434 5433 5431 5430 5428 5427 5426 5425 5424 5423 5422 5422 5420 5420 5419 5418 5417 5416 5415 5414 5414 5414 5414 5413 5413 5413 5413 5414 5414 5415 5416 5417 5418
5444 5442 5441 5440 5439 5437 5436 5434 5433 5431 5430 5428 5426 5424 5423 5422 5420 5419 5418 5418 5417 5416 5415 5415 5414 5413 5412 5412 5411 5410 5410 5409 5409 5408 5408 5408 5408 5408 5408 5409 5410 5411 5412 5413
5438 5436 5435 5434 5433 5431 5430 5428 5427 5425 5423 5421 5420 5418 5416 5415 5414 5413 5412 5411 5411 5410 5409 5409 5408 5407 5406 5406 5406 5405 5405 5404 5404 5403 5403 5403 5403 5403 5403 5404 5404 5405 5406 5407
5431 5430 5429 5428 5426 5425 5423 5422 5420 5418 5417 5415 5413 5411 5410 5409 5407 5406 5406 5405 5404 5403 5403 5402 5402 5401 5401 5400 5400 5400 5399 5399 5399 5398 5398 5398 5398 5398 5398 5399 5399 5400 5401 5402
5424 5423 5422 5421 5419 5418 5417 5415 5413 5412 5410 5408 5407 5405 5404 5402 5401 5400 5399 5399 5398 5397 5397 5396 5396 5396 5395 5395 5395 5395 5394 5394 5393 5393 5393 5393 5393 5393 5393 5394 5395 5395 5396 5397
5417 5416 5415 5414 5412 5411 5409 5408 5407 5405 5403 5402 5400 5399 5398 5396 5395 5394 5393 5392 5392 5391 5391 5390 5390 5390 5390 5390 5390 5389 5389 5389 5389 5388 5388 5388 5388 5388 5389 5389 5390 5391 5391 5392
5410 5409 5408 5406 5405 5403 5402 5401 5399 5398 5397 5395 5394 5393 5392 5391 5389 5388 5387 5386 5386 5385 5385 5385 5385 5385 5385 5385 5385 5384 5384 5384 5384 5384 5383 5383 5383 5384 5384 5385 5386 5386 5387 5388
Wind_Speed
23 23 23 23 22 22 23 24 26 25 25 26 27 27 27 26 25 26 26 26 26 26 28 29 30 30 32 32 33 35 36 38 40 41 42 43 44 44 44 44 44 44 45 46
24 23 23 23 22 23 23 23 24 24 24 24 26 26 25 25 25 26 25 25 25 25 27 28 28 29 31 32 34 34 35 36 38 39 41 42 42 43 43 43 44 44 44 44
24 24 24 23 22 23 23 23 23 24 24 24 25 24 24 25 25 24 24 25 25 26 27 28 29 29 29 31 32 33 34 35 37 39 40 40 41 41 43 43 43 43 44 45
24 24 25 23 22 22 23 23 23 23 24 25 24 24 24 24 24 25 25 25 26 27 28 28 29 29 29 30 31 31 33 34 35 37 38 38 39 41 42 43 44 44 44 45
24 25 25 23 22 22 23 22 23 23 23 24 25 25 25 24 24 25 25 25 26 27 27 26 27 28 29 29 29 30 31 31 32 33 35 37 38 40 41 42 43 43 44 44
23 24 24 22 22 22 22 22 22 22 22 22 23 23 23 25 25 25 25 25 25 26 26 26 26 27 27 28 28 29 30 31 31 32 34 36 37 38 39 40 41 41 42 42
23 24 24 23 23 22 22 22 21 22 22 21 22 22 22 24 25 25 25 25 24 25 25 25 26 27 27 27 28 29 30 31 31 32 33 34 35 36 37 38 39 40 41 41
22 23 23 22 22 22 22 22 22 22 22 22 22 23 23 23 24 25 25 25 25 25 24 24 25 27 27 27 27 27 28 29 29 30 31 32 33 34 35 36 36 37 38 37
22 22 22 21 21 22 22 22 22 23 23 23 23 22 22 22 23 24 24 25 25 24 25 24 25 26 26 26 26 25 25 26 27 28 28 29 30 31 32 33 34 34 34 34
20 20 20 20 20 21 21 22 22 22 23 23 23 22 22 23 23 23 24 24 24 24 24 25 25 25 25 25 25 25 25 25 25 26 26 28 29 29 30 31 32 32 33 33
21 20 21 21 21 22 22 22 22 22 23 23 23 22 22 22 22 22 23 23 23 23 24 24 24 25 25 24 24 24 24 24 25 25 25 26 27 27 28 28 30 31 31 32
21 22 22 22 22 23 23 23 23 23 23 22 22 22 22 22 22 22 22 22 23 24 24 24 24 24 24 24 25 24 24 23 23 24 24 24 24 24 25 26 27 29 30 30
22 22 22 23 23 23 23 23 23 23 22 22 22 22 22 22 22 22 22 22 22 23 23 23 23 23 23 22 22 22 22 22 22 22 23 23 23 23 24 25 25 26 28 28
22 22 22 23 23 24 23 23 23 23 23 22 23 23 22 22 22 22 22 22 22 22 21 21 21 21 21 20 20 20 21 21 22 22 22 22 22 22 23 24 25 25 26 26
22 22 22 23 24 24 23 23 23 23 23 23 23 23 23 22 22 22 22 22 21 21 20 20 20 20 20 20 20 20 20 20 20 20 21 22 22 23 23 23 24 25 25 25
22 22 22 23 23 23 22 22 22 22 22 22 22 22 22 22 22 21 21 21 20 19 19 19 20 20 20 20 20 20 20 19 19 19 20 20 21 22 22 22 23 23 23 24
22 22 22 22 22 22 22 22 22 22 22 21 21 21 21 21 21 21 20 20 20 20 19 19 19 19 19 20 20 20 20 20 20 19 19 19 19 20 20 21 21 21 21 21
21 21 21 22 22 22 21 21 21 21 20 20 20 21 21 20 20 20 19 19 19 19 19 19 20 20 20 20 20 20 20 20 20 19 19 19 19 19 19 19 19 19 19 20
20 21 21 21 21 20 20 20 20 20 20 20 20 20 20 20 20 19 19 18 18 18 19 20 20 20 20 19 19 19 19 18 18 19 19 19 19 19 19 19 19 19 19 19
20 20 20 20 20 19 19 20 20 20 20 20 20 20 20 20 20 19 20 20 20 20 19 19 18 18 18 18 18 17 17 17 17 17 18 18 17 17 17 18 18 17 17 18
20 20 20 19 19 19 19 20 20 21 21 21 21 21 21 21 21 21 21 21 20 20 19 18 17 17 17 17 17 16 16 17 17 17 17 17 17 17 17 17 16 16 17 17
20 20 19 19 19 19 20 20 20 21 21 22 22 21 21 21 21 21 21 21 20 20 19 18 18 17 17 17 16 16 15 15 16 16 16 16 16 15 16 16 16 16 16 16
20 20 20 20 20 20 20 21 21 21 22 21 21 21 21 21 21 20 20 20 20 20 19 19 18 18 17 17 16 15 15 15 15 15 14 14 14 14 15 15 15 15 15 15
21 21 21 21 21 21 21 21 22 22 22 22 21 21 20 20 20 20 20 20 20 19 19 19 18 17 16 16 15 15 15 15 15 14 14 14 14 13 13 13 14 14 14 14
22 21 22 22 22 22 22 22 22 22 21 21 20 20 19 19 19 19 19 19 19 19 19 18 17 16 16 15 15 15 15 15 14 14 14 14 14 13 13 13 13 13 13 13
22 22 22 22 23 23 22 22 22 21 21 20 19 19 18 18 18 18 18 18 18 18 18 17 16 16 15 15 15 14 14 14 14 14 14 14 14 13 13 14 13 13 13 13
23 23 23 23 23 23 23 22 21 21 20 19 19 18 17 17 17 17 17 17 17 17 16 16 15 15 14 14 14 14 14 14 14 14 14 13 13 12 12 12 12 12 13 12
Wind_Direction
282 280 281 281 281 280 281 282 284 284 279 276 276 277 276 274 272 272 272 274 273 267 263 262 262 261 256 254 255 255 254 252 251 250 250 250 251 252 251 251 250 251 252 253
279 279 281 281 281 280 281 283 286 286 283 280 278 276 275 275 274 272 272 272 270 266 263 263 265 264 259 257 258 258 256 254 252 250 250 251 252 252 251 250 250 251 253 253
280 279 280 281 283 283 283 284 286 286 284 280 279 278 276 275 274 273 272 271 269 267 265 265 266 264 260 260 260 259 258 256 254 252 252 252 252 252 251 250 250 251 253 253
285 283 280 284 285 285 285 287 288 289 286 281 280 279 278 275 274 275 274 273 273 273 271 268 267 264 261 261 261 260 258 256 256 255 253 253 252 252 251 249 250 252 254 254
285 285 284 283 285 286 287 286 288 289 289 283 280 278 277 276 275 275 274 273 273 273 272 269 268 265 263 262 264 262 259 257 258 257 256 254 253 253 251 250 251 253 253 254
284 284 286 286 285 287 287 286 287 289 290 288 283 280 278 275 275 274 274 275 274 273 272 270 269 268 266 264 265 263 261 261 260 258 256 255 254 253 251 250 251 253 254 255
284 284 284 286 286 286 287 289 287 288 290 290 287 284 280 277 277 277 276 276 276 275 274 271 269 270 269 268 266 265 263 262 260 258 258 256 255 253 251 252 254 255 255 256
285 285 285 287 286 285 286 287 287 287 289 290 289 285 281 279 278 279 278 277 277 276 275 273 273 274 273 271 270 268 265 262 260 260 259 258 256 253 254 255 256 256 257 257
285 286 286 287 286 285 285 286 287 287 289 291 289 286 282 280 280 279 277 278 278 277 275 274 276 276 273 272 271 271 270 265 263 263 262 260 258 256 255 257 256 255 256 257
283 284 283 284 287 287 287 288 289 290 290 290 289 286 283 281 280 280 279 278 277 277 276 275 276 274 274 274 273 271 271 269 268 267 266 264 262 259 258 257 255 255 256 256
281 282 282 282 285 287 287 288 290 290 290 290 289 287 285 282 281 280 280 280 278 278 278 277 276 275 275 274 273 271 270 269 266 266 266 264 262 260 258 257 256 255 255 256
279 280 280 281 283 287 288 288 288 289 289 289 290 288 286 285 283 283 283 283 282 281 279 278 277 277 276 275 272 271 271 271 270 268 267 265 262 260 258 258 257 256 255 256
279 280 281 283 284 287 287 287 287 288 288 289 290 291 289 287 284 283 284 284 284 284 282 280 278 279 280 278 274 273 273 272 271 271 268 263 262 263 262 260 258 256 256 255
281 281 281 283 285 287 287 285 286 287 288 287 289 290 290 288 285 283 283 283 284 284 281 280 279 280 281 281 278 276 275 274 272 270 268 265 264 264 263 261 260 258 257 255
281 282 282 283 285 286 286 285 286 287 288 288 288 288 288 288 287 285 284 285 284 283 280 279 279 281 282 283 281 280 278 276 273 272 270 267 265 266 265 263 261 259 256 256
281 282 282 283 284 285 285 286 286 287 288 288 287 287 287 288 287 286 285 285 284 283 281 280 281 282 282 283 283 281 278 275 273 272 270 270 268 267 266 264 262 257 255 255
282 282 283 284 283 283 284 285 287 288 288 290 288 288 288 288 287 286 285 284 284 283 281 281 281 283 283 284 283 281 278 276 274 271 270 269 269 268 266 266 263 258 258 257
284 284 285 285 284 283 284 287 287 287 287 288 288 289 289 288 287 286 285 285 284 283 283 282 282 283 282 283 284 281 277 274 273 272 271 269 269 269 269 264 259 258 258 257
285 286 287 286 286 285 285 287 288 288 288 288 288 288 288 287 287 285 283 283 283 284 284 284 284 284 284 285 286 284 278 275 274 273 273 273 274 272 267 261 259 260 260 259
285 286 286 287 287 286 286 287 289 289 290 288 287 287 287 286 285 282 281 281 283 284 284 285 286 286 286 286 287 285 280 276 274 274 274 274 274 272 266 263 261 260 258 258
284 286 287 288 288 289 289 290 291 291 291 290 289 287 286 285 284 281 280 280 281 282 283 284 285 286 287 287 287 284 280 277 274 274 275 275 273 270 268 265 263 261 259 259
286 285 286 288 290 291 292 293 293 293 292 291 290 287 286 284 283 281 279 278 279 280 280 281 283 284 285 284 283 283 281 281 278 276 275 274 272 270 266 265 264 262 260 260
286 286 286 288 290 291 292 292 293 293 293 293 291 287 286 285 283 281 280 278 277 277 278 279 281 282 283 281 280 280 280 279 280 279 275 273 272 271 268 264 263 262 262 262
285 285 284 286 289 290 291 291 293 294 294 294 291 289 286 285 283 282 280 279 278 276 276 277 278 279 278 278 278 278 279 278 278 278 277 274 272 273 270 265 263 260 259 260
285 285 284 285 287 289 290 291 292 292 293 293 291 289 287 286 285 283 281 280 279 278 277 275 275 274 274 276 277 277 278 278 277 277 277 274 271 270 266 262 261 259 257 256
284 285 285 286 287 288 289 290 291 292 292 291 289 287 286 286 286 286 283 280 279 279 277 274 271 271 272 273 275 276 275 275 276 277 277 275 272 269 265 261 258 257 255 256
285 285 287 288 288 287 287 288 288 289 289 289 287 284 284 285 286 286 283 281 281 280 276 271 268 269 270 270 273 276 275 274 274 275 275 273 269 267 263 258 255 255 255 256